Location: La Silve
(44.2414°N, 5.8889°E)
Time: 05:06:16
(UTC+00:00)

SL-16 R/B - Pass Details

Date: 01 December 2020
Orbit: 841 x 849 km, 71.0° (Epoch: 24 January)

Event Time Altitude Azimuth Distance (km) Brightness Sun altitude
Rises 16:49:28 0° 209° (SSW) 3,384 6.2 -9.0°
Reaches altitude 10° 16:51:54 10° 212° (SSW) 2,452 5.5 -9.4°
Maximum altitude 16:57:32 73° 297° (WNW) 882 2.4 -10.3°
Drops below altitude 10° 17:03:11 10° 22° (NNE) 2,467 4.2 -11.3°
Enters shadow 17:04:49 - 24° (NNE) 3,087 4.7 -11.5°
